TimeAKDT,TemperatureF,Dew PointF,Humidity,Sea Level PressureIn,VisibilityMPH,Wind Direction,Wind SpeedMPH,Gust SpeedMPH,PrecipitationIn,Events,Conditions,WindDirDegrees,DateUTC
12:53 AM,5.0,3.9,95,30.47,10.0,ESE,4.6,-,N/A,,Clear,120,2013-04-20 08:53:00
1:53 AM,5.0,3.9,95,30.46,9.0,ESE,6.9,-,N/A,,Clear,120,2013-04-20 09:53:00
2:53 AM,3.0,1.0,91,30.45,10.0,ESE,6.9,-,N/A,,Clear,120,2013-04-20 10:53:00
3:53 AM,1.0,-2.9,83,30.45,10.0,East,3.5,-,N/A,,Clear,80,2013-04-20 11:53:00
4:53 AM,-0.0,-2.0,91,30.46,10.0,NE,5.8,-,N/A,,Clear,40,2013-04-20 12:53:00
5:53 AM,1.9,-0.0,91,30.45,10.0,Calm,Calm,-,N/A,,Partly Cloudy,0,2013-04-20 13:53:00
6:53 AM,1.0,-0.9,91,30.45,10.0,NE,3.5,-,N/A,,Clear,50,2013-04-20 14:53:00
7:53 AM,1.0,-2.0,87,30.46,10.0,East,6.9,-,N/A,,Clear,100,2013-04-20 15:53:00
8:53 AM,-4.0,-7.1,87,30.46,10.0,Calm,Calm,-,N/A,,Clear,0,2013-04-20 16:53:00
9:53 AM,3.0,1.9,95,30.47,10.0,Calm,Calm,-,N/A,,Clear,0,2013-04-20 17:53:00
10:53 AM,1.9,-0.0,91,30.48,10.0,Calm,Calm,-,N/A,,Clear,0,2013-04-20 18:53:00
11:53 AM,6.1,-0.0,76,30.48,10.0,Calm,Calm,-,N/A,,Clear,0,2013-04-20 19:53:00
12:53 PM,7.0,3.9,87,30.48,9.0,Calm,Calm,-,N/A,,Clear,0,2013-04-20 20:53:00
1:53 PM,10.9,7.0,84,30.49,10.0,Calm,Calm,-,N/A,,Clear,0,2013-04-20 21:53:00
2:53 PM,14.0,10.9,88,30.50,10.0,WNW,3.5,-,N/A,,Clear,290,2013-04-20 22:53:00
3:53 PM,16.0,14.0,92,30.50,10.0,West,4.6,-,N/A,,Clear,270,2013-04-20 23:53:00
4:53 PM,17.1,14.0,88,30.50,10.0,West,6.9,-,N/A,,Clear,280,2013-04-21 00:53:00
5:53 PM,17.1,14.0,88,30.51,10.0,West,10.4,-,N/A,,Clear,280,2013-04-21 01:53:00
6:53 PM,17.1,14.0,88,30.50,10.0,West,9.2,-,N/A,,Clear,280,2013-04-21 02:53:00
7:53 PM,16.0,12.0,84,30.50,10.0,West,6.9,-,N/A,,Clear,280,2013-04-21 03:53:00
8:53 PM,15.1,12.0,88,30.50,10.0,West,5.8,-,N/A,,Clear,260,2013-04-21 04:53:00
9:53 PM,15.1,12.0,88,30.49,10.0,Calm,Calm,-,0.00,,Clear,0,2013-04-21 05:53:00
10:53 PM,10.0,7.0,87,30.50,10.0,Calm,Calm,-,N/A,,Clear,0,2013-04-21 06:53:00
11:53 PM,8.1,7.0,95,30.51,10.0,Variable,3.5,-,N/A,,Clear,0,2013-04-21 07:53:00